Regional Weather Roundup
Issued by NWS

Home | Current Version | Previous Version | Graphics & Text | Print | Product List | Glossary On
Versions: 1 2 3 4 5 6 7 8 9 10 11 12 13 14 15 16 17 18 19 20 21 22 23 24 25 26 27 28 29 30 31 32 33 34 35 36 37 38 39 40 41 42 43 44 45 46 47 48 49 50
000
ASUS45 KBOI 281310
RWRID
WEATHER ROUNDUP FOR IDAHO
NATIONAL WEATHER SERVICE BOISE ID
600 AM MST SAT FEB 28 2015

NOTE: "FAIR" INDICATES FEW OR NO CLOUDS BELOW 12000 FEET
WITH NO SIGNIFICANT WEATHER AND/OR OBSTRUCTIONS TO VISIBILITY

IDZ012-014-281400-
SOUTHWEST IDAHO


CITY           SKY/WX    TMP DP  RH WIND       PRES   REMARKS
BOISE          CLOUDY    36  31  82 W6        29.74R WCI  31
CALDWELL       CLOUDY    37  28  70 S10       29.77R WCI  30
MOUNTAIN HOME  CLOUDY    39  23  53 VRB3      29.72R
$$

IDZ016-017-281400-
SOUTHCENTRAL IDAHO


CITY           SKY/WX    TMP DP  RH WIND       PRES   REMARKS
BURLEY         CLOUDY    27  17  66 E16       29.71R WCI  15
JEROME         CLOUDY    31  15  52 NE23      29.70R WCI  18
TWIN FALLS     CLOUDY    32  23  69 E18       29.69R WCI  20
$$

IDZ019>023-281400-
SOUTHEAST IDAHO


CITY           SKY/WX    TMP DP  RH WIND       PRES   REMARKS
IDAHO FALLS    CLEAR     20  11  68 N16       29.78R WCI   6
POCATELLO      CLEAR     19  16  88 NE7       29.76R WCI  10
REXBURG        PTCLDY    16   8  71 NE10      29.80R WCI   4
$$

IDZ006-010-011-018-031-032-281400-
CENTRAL IDAHO MOUNTAINS


CITY           SKY/WX    TMP DP  RH WIND       PRES   REMARKS
MCCALL         CLOUDY    30  21  69 N5        29.69R WCI  25
HAILEY         PTCLDY    28  23  80 NW7       29.72R WCI  21
STANLEY          N/A     10   5  80 CALM      29.72R
SALMON         MOCLDY    27   9  46 E9        29.86R WCI  17
CHALLIS        MOCLDY    25  17  72 NW9       29.76R WCI  15
$$

IDZ002-004-006-007-026-281400-
NORTHERN IDAHO


CITY           SKY/WX    TMP DP  RH WIND       PRES   REMARKS
LEWISTON       PTCLDY    32  22  66 S6        29.94R WCI  26
LOWELL           N/A     37  12  35 VRB7G23   29.94R WCI  32
COEUR D`ALENE  CLEAR     27   9  46 NE16      30.04R WCI  14
MULLAN PASS    CLEAR      9   3  77 VRB5      29.83R WCI   1
$$


USA.gov is the U.S. government's official web portal to all federal, state and local government web resources and services.